Weather History for Frenchville, ME

Change the Weather History Date:

Wednesday, November 27, 2013

  Actual Average Record
Temperature  
Mean Temperature 36 °F 25 °F  
Max Temperature 48 °F 31 °F 55 °F (1999)
Min Temperature 24 °F 19 °F 10 °F (1997)
Degree Days  
Heating Degree Days 29    
Month to date heating degree days 911  
Since 1 July heating degree days 1982  
Cooling Degree Days 0    
Month to date cooling degree days 0  
Year to date cooling degree days 139  
Moisture  
Dew Point 32 °F    
Average Humidity 92    
Maximum Humidity 100    
Minimum Humidity 75    
Precipitation  
Precipitation 1.17 in 0.10 in 1.23 in (1999)
Month to date precipitation 2.62 2.64  
Year to date precipitation 33.05 30.76  
Sea Level Pressure  
Sea Level Pressure 29.59 in    
Wind  
Wind Speed 14 mph (ESE)    
Max Wind Speed 25 mph    
Max Gust Speed 36 mph    
Visibility 3 miles    
Events Fog , Rain , Snow    
T = Trace of Precipitation, MM = Missing Value Source: NWS Daily Summary

Daily Weather History Graph

Daily Weather History Graph

Search for Another Location

Airport:

Trip Planner

Search our weather history database for the weather conditions in past years. The results will help you decide how hot, cold, wet, or windy it might be!

Date:

Astronomy

Nov. 27, 2013 Rise Set
Actual Time 6:54 AM EST 3:47 PM EST
Civil Twilight 6:19 AM EST 4:21 PM EST
Nautical Twilight 5:41 AM EST 4:59 PM EST
Astronomical Twilight 5:05 AM EST 5:36 PM EST
Moon 12:30 AM EST (11/27) 12:43 PM EST (11/27)
Length of Visible Light 10h 01m
Length of Day
8h 52m
Waning Crescent, 32% of the Moon is Illuminated
Nov 27
Waning Crescent
Dec 2
New
Dec 9
First Quarter
Dec 17
Full
Dec 25
Last Quarter

Hourly Weather History & Observations

Time (EST) Temp. Windchill Dew Point Humidity Pressure Visibility Wind Dir Wind Speed Gust Speed Precip Events Conditions
12:53 AM 26.1 °F 16.8 °F 19.0 °F 75% 30.17 in 10.0 mi SE 9.2 mph - N/A   Overcast
1:17 AM 25.0 °F 15.5 °F 19.9 °F 81% 30.14 in 2.5 mi SE 9.2 mph - 0.00 in Snow Light Snow
1:26 AM 25.0 °F 15.5 °F 21.0 °F 85% 30.14 in 1.8 mi SE 9.2 mph - 0.00 in Snow Light Snow
1:32 AM 25.0 °F 17.1 °F 21.9 °F 88% 30.13 in 1.2 mi ESE 6.9 mph - 0.00 in Snow Light Snow
1:44 AM 25.0 °F 15.5 °F 21.9 °F 88% 30.12 in 1.5 mi ESE 9.2 mph - 0.00 in Snow Light Snow
1:53 AM 25.0 °F 14.8 °F 21.9 °F 88% 30.15 in 1.5 mi ESE 10.4 mph - 0.00 in Snow Light Snow
2:01 AM 25.0 °F 14.2 °F 21.9 °F 88% 30.11 in 1.8 mi SE 11.5 mph - 0.00 in Snow Light Snow
2:18 AM 25.0 °F 14.8 °F 21.9 °F 88% 30.09 in 1.5 mi SE 10.4 mph - 0.00 in Snow Light Snow
2:32 AM 25.0 °F 17.1 °F 21.9 °F 88% 30.08 in 1.2 mi ESE 6.9 mph - 0.00 in Snow Light Snow
2:46 AM 25.0 °F 16.3 °F 21.9 °F 88% 30.09 in 1.8 mi ESE 8.1 mph - 0.01 in Snow Light Snow
2:53 AM 25.0 °F 17.1 °F 21.9 °F 88% 30.12 in 2.0 mi ESE 6.9 mph - 0.01 in Snow Light Snow
3:10 AM 24.1 °F 15.2 °F 21.9 °F 91% 30.06 in 1.5 mi East 8.1 mph - 0.00 in Snow Light Snow
3:27 AM 25.0 °F 14.8 °F 21.9 °F 88% 30.06 in 1.5 mi ESE 10.4 mph - 0.00 in Snow Light Snow
3:35 AM 25.0 °F 14.8 °F 21.9 °F 88% 30.05 in 1.2 mi ESE 10.4 mph - 0.00 in Snow Light Snow
3:43 AM 25.0 °F 15.5 °F 21.9 °F 88% 30.05 in 1.5 mi East 9.2 mph - 0.00 in Snow Light Snow
3:51 AM 24.8 °F 14.6 °F 21.2 °F 86% 30.04 in 1.8 mi ESE 10.4 mph - 0.00 in Snow Light Snow
3:53 AM 25.0 °F 14.8 °F 21.9 °F 88% 30.08 in 1.8 mi ESE 10.4 mph - 0.00 in Snow Light Snow
3:59 AM 25.0 °F 15.5 °F 21.9 °F 88% 30.04 in 1.5 mi East 9.2 mph - 0.00 in Snow Light Snow
4:14 AM 25.0 °F 14.2 °F 21.9 °F 88% 30.03 in 1.2 mi ESE 11.5 mph - 0.00 in Snow Light Snow
4:41 AM 25.0 °F 13.1 °F 23.0 °F 92% 30.02 in 1.5 mi ESE 13.8 mph - 0.01 in Snow Light Snow
4:53 AM 25.0 °F 13.1 °F 23.0 °F 92% 30.04 in 1.2 mi ESE 13.8 mph - 0.01 in Snow Light Snow
5:22 AM 25.0 °F 13.6 °F 23.0 °F 92% 29.98 in 1.0 mi ESE 12.7 mph - 0.01 in Snow Light Snow
5:31 AM 25.0 °F 13.6 °F 23.0 °F 92% 29.97 in 0.8 mi East 12.7 mph - 0.01 in Snow Light Snow
5:38 AM 25.0 °F 14.2 °F 23.0 °F 92% 29.97 in 0.8 mi East 11.5 mph - 0.01 in Snow Light Snow
5:53 AM 26.1 °F 15.0 °F 23.0 °F 88% 29.99 in 0.5 mi ESE 12.7 mph - 0.03 in Fog , Snow Snow
6:08 AM 26.1 °F 14.5 °F 24.1 °F 92% 29.95 in 0.8 mi East 13.8 mph - 0.01 in Snow Light Snow
6:24 AM 26.1 °F 16.2 °F 24.1 °F 92% 29.94 in 1.0 mi East 10.4 mph 18.4 mph 0.02 in Snow Light Snow
6:53 AM 27.0 °F 18.0 °F 24.1 °F 89% 29.95 in 1.2 mi East 9.2 mph - 0.04 in Snow Light Snow
7:05 AM 27.0 °F 16.1 °F 25.0 °F 92% 29.91 in 1.5 mi East 12.7 mph - 0.01 in Snow Light Snow
7:08 AM 27.0 °F 16.7 °F 25.0 °F 92% 29.91 in 2.0 mi East 11.5 mph - 0.01 in Snow Light Snow
7:18 AM 27.0 °F 16.1 °F 25.0 °F 92% 29.90 in 5.0 mi East 12.7 mph 21.9 mph 0.02 in Snow Light Snow
7:35 AM 28.0 °F 17.5 °F 26.1 °F 92% 29.88 in 5.0 mi East 12.7 mph 24.2 mph 0.03 in Rain Light Freezing Rain
7:53 AM 28.9 °F 17.3 °F 27.0 °F 92% 29.89 in 3.0 mi East 16.1 mph 23.0 mph 0.08 in Rain Light Freezing Rain
8:14 AM 30.0 °F 19.1 °F 28.0 °F 92% 29.82 in 5.0 mi East 15.0 mph 24.2 mph 0.03 in Rain Light Freezing Rain
8:27 AM 30.0 °F 19.5 °F 28.0 °F 92% 29.81 in 2.5 mi East 13.8 mph 19.6 mph 0.05 in Rain Light Freezing Rain
8:39 AM 30.0 °F 20.0 °F 28.9 °F 96% 29.79 in 1.8 mi East 12.7 mph 21.9 mph 0.06 in Rain Light Freezing Rain
8:44 AM 30.0 °F 20.5 °F 28.9 °F 96% 29.79 in 2.0 mi East 11.5 mph 19.6 mph 0.07 in Rain Light Freezing Rain
8:53 AM 30.9 °F 21.2 °F 28.9 °F 92% 29.81 in 2.0 mi East 12.7 mph 23.0 mph 0.09 in Rain Light Freezing Rain
9:02 AM 30.9 °F 20.2 °F 30.0 °F 96% 29.76 in 3.0 mi East 15.0 mph 24.2 mph 0.01 in Rain Light Freezing Rain
9:19 AM 32.0 °F 22.5 °F 30.0 °F 92% 29.73 in 3.0 mi East 12.7 mph 24.2 mph 0.03 in Rain Light Freezing Rain
9:28 AM 32.0 °F 21.2 °F 30.9 °F 96% 29.72 in 2.5 mi East 16.1 mph 25.3 mph 0.05 in Rain Light Freezing Rain
9:34 AM 32.0 °F 20.8 °F 30.9 °F 96% 29.71 in 3.0 mi East 17.3 mph 26.5 mph 0.06 in Rain Light Freezing Rain
9:53 AM 33.1 °F 21.2 °F 30.9 °F 92% 29.70 in 3.0 mi East 20.7 mph 29.9 mph 0.08 in Rain Light Freezing Rain
9:58 AM 33.1 °F 20.9 °F 30.9 °F 92% 29.64 in 1.8 mi East 21.9 mph 34.5 mph 0.00 in Rain Light Freezing Rain
10:00 AM 33.1 °F 21.9 °F 30.9 °F 92% 29.64 in 1.2 mi East 18.4 mph 34.5 mph 0.00 in Rain Light Freezing Rain
10:11 AM 33.1 °F 21.5 °F 30.9 °F 92% 29.61 in 1.8 mi East 19.6 mph 32.2 mph 0.01 in Rain Light Freezing Rain
10:16 AM 33.1 °F 21.9 °F 30.9 °F 92% 29.60 in 3.0 mi East 18.4 mph 32.2 mph 0.01 in Rain Light Rain
10:53 AM 34.0 °F 23.0 °F 32.0 °F 92% 29.58 in 5.0 mi ESE 18.4 mph 34.5 mph 0.06 in Rain Rain
11:53 AM 37.0 °F 26.7 °F 35.1 °F 93% 29.48 in 4.0 mi ESE 19.6 mph 29.9 mph 0.07 in Rain Rain
12:53 PM 39.0 °F 29.6 °F 37.0 °F 93% 29.42 in 7.0 mi SE 18.4 mph - 0.07 in Rain Light Rain
1:16 PM 39.9 °F 31.8 °F 37.9 °F 93% 29.37 in 4.0 mi SE 15.0 mph - 0.03 in Rain Rain
1:53 PM 42.1 °F 32.6 °F 39.9 °F 92% 29.35 in 4.0 mi SE 23.0 mph 32.2 mph 0.10 in Rain Light Rain
2:34 PM 43.0 °F 35.4 °F 41.0 °F 93% 29.30 in 4.0 mi SE 16.1 mph 26.5 mph 0.03 in Rain Light Rain
2:53 PM 43.0 °F 35.4 °F 41.0 °F 93% 29.32 in 5.0 mi SE 16.1 mph 27.6 mph 0.04 in Rain Light Rain
3:04 PM 43.0 °F 34.8 °F 41.0 °F 93% 29.28 in 6.0 mi SE 18.4 mph 24.2 mph 0.00 in Rain Light Rain
3:23 PM 43.0 °F 35.4 °F 41.0 °F 93% 29.26 in 2.5 mi ESE 16.1 mph - 0.02 in Rain Light Rain
3:41 PM 43.0 °F 34.5 °F 42.1 °F 97% 29.25 in 5.0 mi SE 19.6 mph - 0.03 in Rain Light Rain
3:53 PM 44.1 °F 36.5 °F 42.1 °F 93% 29.26 in 4.0 mi ESE 17.3 mph 25.3 mph 0.04 in Rain Light Rain
4:09 PM 44.1 °F 35.7 °F 43.0 °F 96% 29.22 in 4.0 mi SE 20.7 mph 28.8 mph 0.01 in Rain Light Rain
4:20 PM 44.1 °F 36.8 °F 43.0 °F 96% 29.23 in 3.0 mi SE 16.1 mph - 0.02 in Rain Light Rain
4:25 PM 45.0 °F 37.9 °F 43.0 °F 93% 29.22 in 1.8 mi SE 16.1 mph - 0.02 in Rain Light Rain
4:27 PM 45.0 °F 37.9 °F 43.0 °F 93% 29.22 in 1.2 mi SE 16.1 mph - 0.02 in Rain Light Rain
4:39 PM 45.0 °F 38.9 °F 44.1 °F 97% 29.23 in 0.8 mi SSE 12.7 mph - 0.03 in Rain Light Rain
4:53 PM 45.0 °F 38.5 °F 44.1 °F 97% 29.24 in 0.5 mi SSE 13.8 mph - 0.04 in Fog , Rain Light Rain
5:53 PM 46.9 °F - 46.0 °F 97% 29.20 in 0.5 mi SSE 10.4 mph - 0.06 in Fog , Rain Light Rain
6:53 PM 48.0 °F - 46.9 °F 96% 29.16 in 0.5 mi SSE 8.1 mph - 0.07 in Fog , Rain Light Rain
7:37 PM 45.0 °F 40.6 °F 44.1 °F 97% 29.13 in 0.8 mi West 8.1 mph - 0.05 in Rain Light Rain
7:49 PM 46.4 °F 43.5 °F 44.6 °F 93% 29.12 in 1.5 mi West 5.8 mph - 0.06 in Rain Light Rain
7:50 PM 46.4 °F 43.5 °F 44.6 °F 93% 29.12 in 1.8 mi West 5.8 mph - 0.06 in Rain Light Rain
7:53 PM 46.0 °F 42.5 °F 44.1 °F 93% 29.13 in 2.0 mi West 6.9 mph - 0.06 in Rain Light Rain
8:03 PM 46.0 °F 41.9 °F 44.1 °F 93% 29.12 in 6.0 mi West 8.1 mph - 0.01 in Rain Light Rain
8:19 PM 45.0 °F 39.7 °F 44.1 °F 97% 29.11 in 2.5 mi West 10.4 mph - 0.03 in Rain Light Rain
8:25 PM 45.0 °F 38.9 °F 44.1 °F 97% 29.11 in 7.0 mi West 12.7 mph - 0.04 in Rain Light Rain
8:36 PM 44.1 °F 37.4 °F 43.0 °F 96% 29.09 in 10.0 mi WNW 13.8 mph - 0.04 in Rain Light Rain
8:53 PM 43.0 °F 36.4 °F 41.0 °F 93% 29.11 in 10.0 mi West 12.7 mph - 0.05 in Rain Light Rain
9:13 PM 41.0 °F 32.5 °F 39.9 °F 96% 29.10 in 3.0 mi WNW 17.3 mph - 0.02 in Rain Light Rain
9:29 PM 39.9 °F 32.5 °F 39.0 °F 97% 29.10 in 2.0 mi West 12.7 mph - 0.04 in Rain Rain
9:32 PM 39.0 °F 30.6 °F 37.9 °F 96% 29.10 in 1.8 mi WNW 15.0 mph - 0.04 in Rain Rain
9:38 PM 39.0 °F 31.4 °F 37.9 °F 96% 29.10 in 3.0 mi WNW 12.7 mph - 0.05 in Rain Light Rain
9:50 PM 37.4 °F 29.3 °F 37.4 °F 100% 29.12 in 1.8 mi West 12.7 mph - 0.05 in Rain Light Rain
9:53 PM 37.0 °F 28.1 °F 36.0 °F 96% 29.14 in 0.8 mi West 15.0 mph - 0.06 in Rain Light Rain
10:00 PM 37.0 °F 27.7 °F 35.1 °F 93% 29.12 in 0.5 mi West 16.1 mph - 0.01 in Fog , Rain Rain
10:07 PM 36.0 °F 27.1 °F 35.1 °F 97% 29.11 in 1.0 mi WNW 13.8 mph - 0.01 in Rain Light Rain
10:11 PM 36.0 °F 27.5 °F 35.1 °F 97% 29.10 in 2.0 mi WNW 12.7 mph - 0.02 in Rain Light Rain
10:19 PM 36.0 °F 27.1 °F 35.1 °F 97% 29.10 in 6.0 mi WNW 13.8 mph - 0.02 in Rain Light Rain
10:53 PM 35.1 °F 24.5 °F 33.1 °F 92% 29.13 in 6.0 mi WNW 18.4 mph 25.3 mph 0.03 in Rain Light Rain
11:31 PM 33.1 °F 24.4 °F 32.0 °F 96% 29.14 in 10.0 mi WNW 11.5 mph - 0.05 in Rain Light Rain
11:48 PM 33.8 °F 25.3 °F 30.2 °F 87% 29.14 in 8.0 mi WNW 11.5 mph - 0.07 in Rain Light Rain
11:53 PM 33.1 °F 24.4 °F 30.9 °F 92% 29.16 in 8.0 mi WNW 11.5 mph - 0.07 in Rain Light Rain